Weather History for Doha International Airport, Qatar

Change the Weather History Date:

Saturday, November 30, 2013

  Actual Average Record
Temperature  
Mean Temperature 74 °F -  
Max Temperature 81 °F 75 °F - ()
Min Temperature 67 °F 59 °F - ()
Cooling Degree Days 9    
Growing Degree Days 24 (Base 50)    
Moisture  
Dew Point 66 °F    
Average Humidity 75    
Maximum Humidity 88    
Minimum Humidity 52    
Precipitation  
Precipitation 0.00 in 0.02 in - ()
Sea Level Pressure  
Sea Level Pressure 30.12 in    
Wind  
Wind Speed 3 mph ()    
Max Wind Speed 9 mph    
Max Gust Speed -    
Visibility 5.2 miles    
Events      
T = Trace of Precipitation, MM = Missing Value Source: Averaged Metar Reports

Daily Weather History Graph

Daily Weather History Graph

Search for Another Location

Airport:

Trip Planner

Search our weather history database for the weather conditions in past years. The results will help you decide how hot, cold, wet, or windy it might be!

Date:

Astronomy

Nov. 30, 2013 Rise Set
Actual Time 6:01 AM AST 4:43 PM AST
Civil Twilight 5:36 AM AST 5:07 PM AST
Nautical Twilight 5:08 AM AST 5:36 PM AST
Astronomical Twilight 4:40 AM AST 6:03 PM AST
Moon 3:02 AM AST (11/30) 2:38 PM AST (11/30)
Length of Visible Light 11h 31m
Length of Day
10h 41m
Waning Crescent, 9% of the Moon is Illuminated
Nov 30
Waning Crescent
Dec 3
New
Dec 9
First Quarter
Dec 17
Full
Dec 25
Last Quarter

Hourly Weather History & Observations

Time (AST) Temp. Heat Index Dew Point Humidity Pressure Visibility Wind Dir Wind Speed Gust Speed Precip Events Conditions
12:00 AM 72 °F - 68 °F 84% 30.11 in 2 mi 2.3 mph - -   Mist
12:00 AM 71.6 °F - 68.0 °F 88% 30.09 in 2.5 mi Variable 2.3 mph - N/A   Mist
1:00 AM 71.6 °F - 68.0 °F 88% 30.09 in 3.7 mi WNW 3.5 mph - N/A   Unknown
2:00 AM 69.8 °F - 64.4 °F 83% 30.09 in 5.0 mi Variable 2.3 mph - N/A   Partly Cloudy
3:00 AM 69 °F - 65 °F 83% 30.11 in 5 mi 1.2 mph - -   Haze
3:00 AM 69.8 °F - 64.4 °F 83% 30.09 in 5.0 mi Variable 1.2 mph - N/A   Partly Cloudy
3:30 AM 69.8 °F - 66.2 °F 88% 30.09 in 5.0 mi Variable 2.3 mph - N/A   Partly Cloudy
4:00 AM 69.8 °F - 64.4 °F 83% 30.09 in 4.3 mi Variable 2.3 mph - N/A   Unknown
4:30 AM 68.0 °F - 64.4 °F 88% 30.09 in 4.3 mi Variable 2.3 mph - N/A   Unknown
5:00 AM 68.0 °F - 64.4 °F 88% 30.12 in 5.0 mi Calm Calm - N/A   Unknown
6:00 AM 68 °F - 64 °F 82% 30.14 in 4 mi 1.2 mph - -   Haze
6:00 AM 68.0 °F - 64.4 °F 88% 30.12 in 3.7 mi Variable 1.2 mph - N/A   Partly Cloudy
6:30 AM 68.0 °F - 64.4 °F 88% 30.15 in 3.7 mi WNW 3.5 mph - N/A   Unknown
7:00 AM 69.8 °F - 64.4 °F 83% 30.15 in 3.7 mi Variable 2.3 mph - N/A   Unknown
7:30 AM 69.8 °F - 66.2 °F 88% 30.15 in 3.1 mi Variable 2.3 mph - N/A   Haze
8:00 AM 73.4 °F - 66.2 °F 78% 30.15 in 3.1 mi Calm Calm - N/A   Haze
8:30 AM 75.2 °F - 66.2 °F 73% 30.15 in 3.7 mi Variable 1.2 mph - N/A   Partly Cloudy
9:00 AM 75 °F - 67 °F 70% 30.18 in 5 mi North 3.5 mph - -   Haze
9:00 AM 75.2 °F - 68.0 °F 78% 30.18 in 5.0 mi North 3.5 mph - N/A   Partly Cloudy
9:30 AM 77.0 °F - 68.0 °F 74% 30.15 in 5.0 mi NNW 3.5 mph - N/A   Partly Cloudy
10:00 AM 77.0 °F - 68.0 °F 74% 30.15 in 6.2 mi NNE 3.5 mph - N/A   Partly Cloudy
10:30 AM 78.8 °F - 68.0 °F 69% 30.15 in 6.2 mi Variable 2.3 mph - N/A   Scattered Clouds
11:00 AM 78.8 °F - 66.2 °F 65% 30.15 in 6.2 mi ENE 3.5 mph - N/A   Scattered Clouds
11:30 AM 80.6 °F 83.2 °F 68.0 °F 65% 30.12 in 6.2 mi ENE 3.5 mph - N/A   Scattered Clouds
12:00 PM 80 °F - 67 °F 56% 30.14 in 7 mi ENE 4.6 mph - -   Scattered Clouds
12:00 PM 80.6 °F 82.7 °F 66.2 °F 61% 30.12 in 6.2 mi ENE 4.6 mph - N/A   Partly Cloudy
12:30 PM 80.6 °F 82.7 °F 66.2 °F 61% 30.09 in 6.2 mi NNE 4.6 mph - N/A   Partly Cloudy
1:00 PM 80.6 °F 82.7 °F 66.2 °F 61% 30.09 in 6.2 mi ENE 5.8 mph - N/A   Partly Cloudy
1:30 PM 80.6 °F 82.7 °F 66.2 °F 61% 30.09 in 6.2 mi NNE 6.9 mph - N/A   Partly Cloudy
2:00 PM 80.6 °F 82.3 °F 64.4 °F 58% 30.09 in 6.2 mi ENE 5.8 mph - N/A   Partly Cloudy
2:30 PM 80.6 °F 82.7 °F 66.2 °F 61% 30.09 in 6.2 mi ENE 5.8 mph - N/A   Partly Cloudy
3:00 PM 80 °F - 65 °F 52% 30.10 in 9 mi ENE 5.8 mph - -   Scattered Clouds
3:00 PM 80.6 °F 82.7 °F 66.2 °F 61% 30.09 in 6.2 mi ENE 5.8 mph - N/A   Partly Cloudy
3:30 PM 78.8 °F - 64.4 °F 61% 30.09 in 6.2 mi ENE 5.8 mph - N/A   Partly Cloudy
4:00 PM 78.8 °F - 64.4 °F 61% 30.09 in 6.2 mi NE 6.9 mph - N/A   Partly Cloudy
4:30 PM 77.0 °F - 66.2 °F 69% 30.09 in 6.2 mi NE 5.8 mph - N/A   Partly Cloudy
5:00 PM 77.0 °F - 66.2 °F 69% 30.09 in - NE 5.8 mph - N/A   Clear
5:30 PM 77.0 °F - 68.0 °F 74% 30.09 in 6.2 mi NE 4.6 mph - N/A   Partly Cloudy
6:00 PM 76 °F - 68 °F 70% 30.13 in 9 mi NE 3.5 mph - -  
6:00 PM 75.2 °F - 68.0 °F 78% 30.12 in - NE 3.5 mph - N/A   Clear
7:00 PM 75.2 °F - 68.0 °F 78% 30.12 in - NNE 3.5 mph - N/A   Clear
7:30 PM 75.2 °F - 69.8 °F 83% 30.15 in - North 3.5 mph - N/A   Clear
8:00 PM 75.2 °F - 69.8 °F 83% 30.15 in - NNW 5.8 mph - N/A   Clear
8:30 PM 75.2 °F - 68.0 °F 78% 30.15 in 6.2 mi NNW 6.9 mph - N/A   Partly Cloudy
9:00 PM 74 °F - 69 °F 81% 30.18 in 5 mi NNW 9.2 mph - -   Haze
9:00 PM 73.4 °F - 69.8 °F 88% 30.18 in 5.0 mi NNW 9.2 mph - N/A   Scattered Clouds
9:30 PM 73.4 °F - 68.0 °F 83% 30.18 in 4.3 mi NNW 5.8 mph - N/A   Partly Cloudy
10:00 PM 73.4 °F - 66.2 °F 78% 30.15 in 4.3 mi NNW 8.1 mph - N/A   Partly Cloudy
10:30 PM 73.4 °F - 66.2 °F 78% 30.15 in 4.3 mi NNW 5.8 mph - N/A   Partly Cloudy
11:00 PM 71.6 °F - 64.4 °F 78% 30.15 in 4.3 mi NNW 4.6 mph - N/A   Partly Cloudy
11:30 PM 71.6 °F - 62.6 °F 73% 30.15 in 4.3 mi NNW 3.5 mph - N/A   Partly Cloudy